N712VJ KTYS-KBNA

Flight info

Callsign N712VJ
Flight time 0h 46m
Altitude 22000
Route EDDDY SWFFT3
Aircraft SF50/L-SDGRWY/L

Departure

Time 2026-05-08 02:29
Airport McGhee Tyson Airport (KTYS)

Arrival

Time 2026-05-08 03:16
Airport Nashville International Airport (KBNA)
Time Latitude Longitude Altitude Speed Heading
2026-05-08 02:21 35.81055 -83.98721 960 ft 0 kts 132°
2026-05-08 02:26 35.81054 -83.98720 958 ft 2 kts 79°
2026-05-08 02:26 35.81112 -83.98731 960 ft 15 kts 332°
2026-05-08 02:26 35.81194 -83.98770 959 ft 11 kts
2026-05-08 02:27 35.81287 -83.98673 960 ft 25 kts 46°
2026-05-08 02:27 35.81398 -83.98542 961 ft 19 kts 43°
2026-05-08 02:27 35.81487 -83.98429 961 ft 20 kts 43°
2026-05-08 02:27 35.81585 -83.98333 966 ft 10 kts
2026-05-08 02:28 35.81589 -83.98333 966 ft 3 kts
2026-05-08 02:28 35.81631 -83.98359 966 ft 10 kts 313°
2026-05-08 02:28 35.81626 -83.98431 966 ft 0 kts 223°
2026-05-08 02:28 35.81518 -83.98561 961 ft 50 kts 225°
2026-05-08 02:29 35.81146 -83.99014 988 ft 96 kts 226°
2026-05-08 02:29 35.80637 -83.99620 1266 ft 107 kts 224°
2026-05-08 02:29 35.80057 -84.00312 1503 ft 126 kts 227°
2026-05-08 02:29 35.79431 -84.01123 1980 ft 135 kts 228°
2026-05-08 02:30 35.78752 -84.01976 2478 ft 142 kts 231°
2026-05-08 02:30 35.78436 -84.03123 2854 ft 153 kts 281°
2026-05-08 02:30 35.79011 -84.04229 3186 ft 164 kts 326°
2026-05-08 02:30 35.80084 -84.04605 3763 ft 164 kts
2026-05-08 02:31 35.81139 -84.03951 4002 ft 188 kts 43°
2026-05-08 02:31 35.81982 -84.02559 4014 ft 216 kts 54°
2026-05-08 02:31 35.82933 -84.00994 4009 ft 240 kts 46°
2026-05-08 02:31 35.84314 -83.99740 4008 ft 253 kts 26°
2026-05-08 02:32 35.85985 -83.99097 4010 ft 257 kts
2026-05-08 02:32 35.87770 -83.99182 4002 ft 258 kts 348°
2026-05-08 02:32 35.89418 -84.00018 4173 ft 254 kts 327°
2026-05-08 02:32 35.90678 -84.01383 5098 ft 229 kts 310°
2026-05-08 02:33 35.91453 -84.02961 6131 ft 202 kts 294°
2026-05-08 02:33 35.91810 -84.04520 7049 ft 176 kts 279°
2026-05-08 02:33 35.91945 -84.05989 7585 ft 171 kts 278°
2026-05-08 02:33 35.92095 -84.07449 8037 ft 171 kts 278°
2026-05-08 02:34 35.92215 -84.08901 8473 ft 170 kts 273°
2026-05-08 02:34 35.91805 -84.10247 8873 ft 179 kts 233°
2026-05-08 02:34 35.90784 -84.11170 9271 ft 184 kts 219°
2026-05-08 02:34 35.89709 -84.12034 9667 ft 184 kts 221°
2026-05-08 02:35 35.88635 -84.12902 10059 ft 185 kts 221°
2026-05-08 02:35 35.87604 -84.13830 10381 ft 181 kts 230°
2026-05-08 02:35 35.86777 -84.14938 10763 ft 174 kts 241°
2026-05-08 02:35 35.86151 -84.16193 11130 ft 169 kts 252°
2026-05-08 02:36 35.85804 -84.17552 11498 ft 165 kts 262°
2026-05-08 02:36 35.85563 -84.18925 11888 ft 163 kts 263°
2026-05-08 02:36 35.85333 -84.20289 12267 ft 162 kts 263°
2026-05-08 02:36 35.85105 -84.21650 12649 ft 161 kts 263°
2026-05-08 02:37 35.84879 -84.22995 13038 ft 160 kts 263°
2026-05-08 02:37 35.84655 -84.24321 13422 ft 159 kts 263°
2026-05-08 02:37 35.84432 -84.25652 13811 ft 158 kts 263°
2026-05-08 02:37 35.84209 -84.26976 14152 ft 157 kts 263°
2026-05-08 02:38 35.83986 -84.28298 14481 ft 157 kts 263°
2026-05-08 02:38 35.83764 -84.29618 14806 ft 158 kts 263°
2026-05-08 02:38 35.83538 -84.30945 15130 ft 158 kts 263°
2026-05-08 02:38 35.83318 -84.32255 15459 ft 158 kts 263°
2026-05-08 02:39 35.83092 -84.33584 15769 ft 159 kts 263°
2026-05-08 02:39 35.82865 -84.34923 16003 ft 164 kts 263°
2026-05-08 02:39 35.82621 -84.36372 16012 ft 181 kts 263°
2026-05-08 02:39 35.82351 -84.37956 16025 ft 196 kts 262°
2026-05-08 02:40 35.82062 -84.39651 16024 ft 207 kts 262°
2026-05-08 02:40 35.81756 -84.41437 15983 ft 218 kts 262°
2026-05-08 02:40 35.81438 -84.43302 15967 ft 225 kts 262°
2026-05-08 02:40 35.81110 -84.45218 15966 ft 230 kts 262°
2026-05-08 02:41 35.80781 -84.47142 15965 ft 234 kts 262°
2026-05-08 02:41 35.80444 -84.49113 15970 ft 237 kts 262°
2026-05-08 02:41 35.80103 -84.51103 15971 ft 238 kts 262°
2026-05-08 02:41 35.79759 -84.53110 15975 ft 240 kts 262°
2026-05-08 02:42 35.79413 -84.55127 15978 ft 240 kts 262°
2026-05-08 02:42 35.79067 -84.57152 15974 ft 242 kts 262°
2026-05-08 02:42 35.78717 -84.59180 15976 ft 242 kts 261°
2026-05-08 02:42 35.78372 -84.61188 15978 ft 243 kts 261°
2026-05-08 02:43 35.78022 -84.63224 15977 ft 243 kts 261°
2026-05-08 02:43 35.77672 -84.65260 15976 ft 243 kts 261°
2026-05-08 02:43 35.77321 -84.67295 15976 ft 243 kts 261°
2026-05-08 02:43 35.76969 -84.69337 15974 ft 243 kts 261°
2026-05-08 02:44 35.76616 -84.71376 15975 ft 243 kts 261°
2026-05-08 02:44 35.76262 -84.73420 15973 ft 244 kts 261°
2026-05-08 02:44 35.75908 -84.75460 15970 ft 244 kts 261°
2026-05-08 02:44 35.75553 -84.77500 15972 ft 243 kts 261°
2026-05-08 02:45 35.75204 -84.79513 15967 ft 244 kts 261°
2026-05-08 02:45 35.74849 -84.81554 15966 ft 243 kts 261°
2026-05-08 02:45 35.74494 -84.83590 15964 ft 242 kts 261°
2026-05-08 02:45 35.74139 -84.85622 15963 ft 243 kts 261°
2026-05-08 02:46 35.73784 -84.87659 15961 ft 243 kts 261°
2026-05-08 02:46 35.73427 -84.89701 15957 ft 243 kts 261°
2026-05-08 02:46 35.73078 -84.91700 15962 ft 241 kts 261°
2026-05-08 02:46 35.72721 -84.93742 15964 ft 241 kts 261°
2026-05-08 02:47 35.72374 -84.95735 15966 ft 242 kts 261°
2026-05-08 02:47 35.72018 -84.97759 15964 ft 242 kts 261°
2026-05-08 02:47 35.71661 -84.99782 15966 ft 242 kts 261°
2026-05-08 02:47 35.71305 -85.01811 15964 ft 242 kts 261°
2026-05-08 02:48 35.70948 -85.03838 15969 ft 243 kts 261°
2026-05-08 02:48 35.70589 -85.05882 15965 ft 244 kts 261°
2026-05-08 02:48 35.70228 -85.07932 15962 ft 244 kts 261°
2026-05-08 02:48 35.69873 -85.09949 15964 ft 244 kts 261°
2026-05-08 02:49 35.69514 -85.11989 15963 ft 244 kts 261°
2026-05-08 02:49 35.69153 -85.14031 15958 ft 241 kts 261°
2026-05-08 02:49 35.68793 -85.16032 15966 ft 239 kts 261°
2026-05-08 02:49 35.68443 -85.18037 15968 ft 240 kts 261°
2026-05-08 02:50 35.68087 -85.20053 15964 ft 241 kts 261°
2026-05-08 02:50 35.67733 -85.22046 15964 ft 242 kts 261°
2026-05-08 02:50 35.67372 -85.24074 15960 ft 243 kts 261°
2026-05-08 02:50 35.67010 -85.26109 15961 ft 243 kts 261°
2026-05-08 02:51 35.66648 -85.28145 15959 ft 243 kts 261°
2026-05-08 02:51 35.66407 -85.29492 15957 ft 244 kts 261°
2026-05-08 02:51 35.66041 -85.31534 15954 ft 244 kts 261°
2026-05-08 02:51 35.65559 -85.34235 15954 ft 244 kts 261°
2026-05-08 02:52 35.65194 -85.36277 15958 ft 244 kts 261°
2026-05-08 02:52 35.64947 -85.37657 15953 ft 244 kts 261°
2026-05-08 02:52 35.64585 -85.39673 15956 ft 244 kts 261°
2026-05-08 02:52 35.64219 -85.41714 15954 ft 244 kts 261°
2026-05-08 02:53 35.63852 -85.43758 15959 ft 244 kts 261°
2026-05-08 02:53 35.63485 -85.45806 15959 ft 245 kts 261°
2026-05-08 02:53 35.63117 -85.47846 15962 ft 245 kts 261°
2026-05-08 02:53 35.62750 -85.49888 15964 ft 245 kts 261°
2026-05-08 02:54 35.62387 -85.51909 15968 ft 245 kts 261°
2026-05-08 02:54 35.62018 -85.53953 15968 ft 245 kts 261°
2026-05-08 02:54 35.61647 -85.56005 15964 ft 245 kts 261°
2026-05-08 02:54 35.61278 -85.58046 15973 ft 245 kts 261°
2026-05-08 02:55 35.60909 -85.60090 15973 ft 245 kts 261°
2026-05-08 02:55 35.60169 -85.64180 15973 ft 245 kts 261°
2026-05-08 02:55 35.59799 -85.66216 15789 ft 251 kts 261°
2026-05-08 02:56 35.59411 -85.68356 15468 ft 260 kts 260°
2026-05-08 02:56 35.59013 -85.70542 15113 ft 264 kts 260°
2026-05-08 02:56 35.58611 -85.72751 14765 ft 265 kts 260°
2026-05-08 02:56 35.58205 -85.74962 14418 ft 265 kts 260°
2026-05-08 02:57 35.57807 -85.77143 14077 ft 264 kts 260°
2026-05-08 02:57 35.57410 -85.79322 13717 ft 263 kts 260°
2026-05-08 02:57 35.57005 -85.81536 13363 ft 263 kts 260°
2026-05-08 02:57 35.56602 -85.83736 13031 ft 264 kts 260°
2026-05-08 02:58 35.56197 -85.85943 12693 ft 265 kts 260°
2026-05-08 02:58 35.55790 -85.88157 12334 ft 265 kts 260°
2026-05-08 02:58 35.55383 -85.90371 11985 ft 265 kts 261°
2026-05-08 02:58 35.54976 -85.92584 11640 ft 266 kts 261°
2026-05-08 02:59 35.54574 -85.94774 11302 ft 267 kts 261°
2026-05-08 02:59 35.54224 -85.97003 10944 ft 264 kts 268°
2026-05-08 02:59 35.54558 -85.99197 10576 ft 263 kts 292°
2026-05-08 02:59 35.55493 -86.01131 10235 ft 264 kts 307°
2026-05-08 03:00 35.56866 -86.02632 9991 ft 265 kts 324°
2026-05-08 03:00 35.58551 -86.03562 9982 ft 268 kts 340°
2026-05-08 03:00 35.60373 -86.04106 9983 ft 269 kts 342°
2026-05-08 03:00 35.62185 -86.04679 9983 ft 269 kts 341°
2026-05-08 03:01 35.63967 -86.05286 9994 ft 268 kts 340°
2026-05-08 03:01 35.65697 -86.06085 9984 ft 265 kts 330°
2026-05-08 03:01 35.67244 -86.07298 9982 ft 263 kts 320°
2026-05-08 03:01 35.68564 -86.08857 9983 ft 261 kts 310°
2026-05-08 03:02 35.69768 -86.10497 9983 ft 262 kts 311°
2026-05-08 03:02 35.71010 -86.12146 9981 ft 262 kts 311°
2026-05-08 03:02 35.72247 -86.13796 9925 ft 263 kts 311°
2026-05-08 03:02 35.73488 -86.15464 9613 ft 265 kts 311°
2026-05-08 03:03 35.74738 -86.17142 9266 ft 265 kts 311°
2026-05-08 03:03 35.75986 -86.18815 8918 ft 264 kts 311°
2026-05-08 03:03 35.77235 -86.20490 8569 ft 265 kts 311°
2026-05-08 03:03 35.78482 -86.22167 8220 ft 265 kts 311°
2026-05-08 03:04 35.79522 -86.23996 7986 ft 264 kts 298°
2026-05-08 03:04 35.80224 -86.26076 7982 ft 264 kts 289°
2026-05-08 03:04 35.80825 -86.28207 7848 ft 254 kts 290°
2026-05-08 03:04 35.81415 -86.30239 6748 ft 254 kts 290°
2026-05-08 03:05 35.82008 -86.32282 6746 ft 256 kts 290°
2026-05-08 03:05 35.82611 -86.34394 6637 ft 264 kts 289°
2026-05-08 03:05 35.83228 -86.36551 6442 ft 269 kts 289°
2026-05-08 03:05 35.83853 -86.38725 6219 ft 269 kts 289°
2026-05-08 03:06 35.84469 -86.40870 6000 ft 267 kts 290°
2026-05-08 03:06 35.85288 -86.42910 5980 ft 266 kts 299°
2026-05-08 03:06 35.86174 -86.44918 5978 ft 266 kts 298°
2026-05-08 03:06 35.86999 -86.46847 5980 ft 238 kts 298°
2026-05-08 03:07 35.87728 -86.48540 5970 ft 213 kts 298°
2026-05-08 03:07 35.88407 -86.50112 5969 ft 204 kts 298°
2026-05-08 03:07 35.89069 -86.51647 5971 ft 202 kts 298°
2026-05-08 03:07 35.89723 -86.53164 5996 ft 203 kts 298°
2026-05-08 03:08 35.90387 -86.54706 6000 ft 203 kts 298°
2026-05-08 03:08 35.91054 -86.56251 5999 ft 204 kts 298°
2026-05-08 03:08 35.91718 -86.57796 5998 ft 203 kts 298°
2026-05-08 03:08 35.92384 -86.59337 5999 ft 203 kts 298°
2026-05-08 03:09 35.93034 -86.60853 5722 ft 195 kts 298°
2026-05-08 03:09 35.93688 -86.62364 4965 ft 202 kts 298°
2026-05-08 03:09 35.94337 -86.63869 4338 ft 200 kts 298°
2026-05-08 03:09 35.95095 -86.65283 3644 ft 196 kts 312°
2026-05-08 03:10 35.96019 -86.66537 3209 ft 196 kts 315°
2026-05-08 03:10 35.96998 -86.67592 3000 ft 176 kts 325°
2026-05-08 03:10 35.97826 -86.68585 2985 ft 156 kts 307°
2026-05-08 03:10 35.98414 -86.69728 2990 ft 156 kts 306°
2026-05-08 03:11 35.99174 -86.70555 3000 ft 136 kts 333°
2026-05-08 03:11 36.00033 -86.70918 2990 ft 127 kts 352°
2026-05-08 03:11 36.00909 -86.70877 3000 ft 126 kts 11°
2026-05-08 03:11 36.01722 -86.70556 2959 ft 119 kts 18°
2026-05-08 03:12 36.02529 -86.70249 2509 ft 123 kts 17°
2026-05-08 03:12 36.03303 -86.69944 2069 ft 110 kts 17°
2026-05-08 03:12 36.03998 -86.69669 2034 ft 102 kts 17°
2026-05-08 03:12 36.04667 -86.69406 1923 ft 102 kts 17°
2026-05-08 03:13 36.05343 -86.69135 1798 ft 101 kts 17°
2026-05-08 03:13 36.05993 -86.68880 1672 ft 98 kts 17°
2026-05-08 03:13 36.06640 -86.68620 1543 ft 98 kts 17°
2026-05-08 03:13 36.07232 -86.68384 1427 ft 97 kts 17°
2026-05-08 03:14 36.07874 -86.68124 1397 ft 99 kts 18°
2026-05-08 03:14 36.08535 -86.67867 1295 ft 100 kts 16°
2026-05-08 03:14 36.09196 -86.67604 1137 ft 98 kts 17°
2026-05-08 03:14 36.09839 -86.67339 953 ft 99 kts 17°
2026-05-08 03:15 36.10489 -86.67077 784 ft 98 kts 16°
2026-05-08 03:15 36.11135 -86.66818 626 ft 96 kts 16°
2026-05-08 03:15 36.11725 -86.66583 588 ft 82 kts 16°
2026-05-08 03:15 36.12231 -86.66380 576 ft 69 kts 15°
2026-05-08 03:16 36.12653 -86.66212 564 ft 57 kts 17°
2026-05-08 03:16 36.12940 -86.66108 551 ft 30 kts
2026-05-08 03:16 36.13024 -86.66169 549 ft 0 kts 267°
2026-05-08 03:19 36.13002 -86.66210 555 ft 12 kts 208°
2026-05-08 03:19 36.12904 -86.66255 554 ft 18 kts 198°
2026-05-08 03:19 36.12769 -86.66308 557 ft 22 kts 198°
2026-05-08 03:20 36.12616 -86.66371 562 ft 25 kts 199°
2026-05-08 03:20 36.12452 -86.66438 563 ft 25 kts 199°
2026-05-08 03:20 36.12292 -86.66501 567 ft 24 kts 197°
2026-05-08 03:20 36.12211 -86.66533 569 ft 0 kts 199°
2026-05-08 03:21 36.12214 -86.66562 569 ft 12 kts 284°
2026-05-08 03:21 36.12252 -86.66713 576 ft 17 kts 289°
2026-05-08 03:21 36.12284 -86.66826 578 ft 11 kts 292°
2026-05-08 03:21 36.12323 -86.66913 578 ft 12 kts 302°
2026-05-08 03:22 36.12375 -86.66990 579 ft 12 kts 298°
2026-05-08 03:22 36.12341 -86.67079 580 ft 14 kts 224°
2026-05-08 03:22 36.12258 -86.67181 581 ft 19 kts 223°
2026-05-08 03:22 36.12197 -86.67295 583 ft 14 kts 288°
2026-05-08 03:23 36.12231 -86.67383 584 ft 11 kts 243°
2026-05-08 03:23 36.12168 -86.67405 583 ft 9 kts 185°
2026-05-08 03:23 36.12095 -86.67430 581 ft 15 kts 191°
2026-05-08 03:23 36.12071 -86.67432 581 ft 0 kts 62°
2026-05-08 03:24 36.12086 -86.67428 581 ft 4 kts
2026-05-08 03:24 36.12088 -86.67428 581 ft 0 kts